Location: Kutna Hora
(49.9500°N, 15.2670°E)
Time: 00:11:55
(UTC+02:00)

ISS - Pass Details

Date: 24 March 2019
Orbit: 408 x 410 km, 51.6° (Epoch: 26 April)

Event Time Altitude Azimuth Distance (km) Brightness Sun altitude
Rises 21:02:40 0° 263° (W) 2,334 0.7 -25.4°
Reaches altitude 10° 21:04:46 10° 266° (W) 1,473 -0.4 -25.7°
Enters shadow 21:06:01 21° 270° (W) 975 -1.4 -25.8°
